Weather History for Paganella, Italy

Change the Weather History Date:

Wednesday, February 12, 2014

  Actual Average Record
Temperature  
Mean Temperature 22 °F -  
Max Temperature 26 °F 29 °F 44 °F (1998)
Min Temperature 17 °F 20 °F 1 °F (2012)
Degree Days  
Heating Degree Days 44    
Moisture  
Dew Point 15 °F    
Average Humidity 75    
Maximum Humidity 86    
Minimum Humidity 59    
Precipitation  
Precipitation 0.00 in 0.04 in - ()
Sea Level Pressure  
Sea Level Pressure 29.63 in    
Wind  
Wind Speed 8 mph ()    
Max Wind Speed 17 mph    
Max Gust Speed -    
Visibility 6.2 miles    
Events Snow    
Averages and records for this station are not official NWS values.
T = Trace of Precipitation, MM = Missing Value Source: Averaged Metar Reports

Daily Weather History Graph

Daily Weather History Graph

Search for Another Location

Airport:

Trip Planner

Search our weather history database for the weather conditions in past years. The results will help you decide how hot, cold, wet, or windy it might be!

Date:

Astronomy

Feb. 12, 2014 Rise Set
Actual Time 7:23 AM CET 5:37 PM CET
Civil Twilight 6:52 AM CET 6:08 PM CET
Nautical Twilight 6:17 AM CET 6:43 PM CET
Astronomical Twilight 5:42 AM CET 7:18 PM CET
Moon 3:32 PM CET (2/12) 5:33 AM CET (2/12)
Length of Visible Light 11h 15m
Length of Day
10h 13m
Waxing Gibbous, 94% of the Moon is Illuminated
Feb 12
Waxing Gibbous
Feb 15
Full
Feb 22
Last Quarter
Mar 1
New
Mar 8
First Quarter

Hourly Weather History & Observations

Time (CET) Temp. Windchill Dew Point Humidity Pressure Visibility Wind Dir Wind Speed Gust Speed Precip Events Conditions
12:00 AM 26 °F - 22 °F 76%  in 25 mi NNE 4.6 mph - -   Scattered Clouds
12:55 AM 26.6 °F 19.1 °F 21.2 °F 80% 29.59 in 6.2 mi NNE 6.9 mph - N/A   Partly Cloudy
1:00 AM 26 °F - 21 °F 75%  in 25 mi NNE 6.9 mph - -   Scattered Clouds
1:55 AM 24.8 °F 19.1 °F 19.4 °F 80% 29.56 in 6.2 mi NE 4.6 mph - N/A   Partly Cloudy
2:00 AM 25 °F - 19 °F 69%  in 25 mi NE 4.6 mph - -   Scattered Clouds
2:55 AM 23.0 °F 14.7 °F 17.6 °F 80% 29.53 in - SSE 6.9 mph - N/A   Clear
3:00 AM 23 °F - 18 °F 72%  in 31 mi SSE 6.9 mph - -   Scattered Clouds
3:55 AM 23.0 °F 15.8 °F 17.6 °F 80% 29.53 in - SSE 5.8 mph - N/A   Clear
4:00 AM 23 °F - 17 °F 71%  in 31 mi SSE 5.8 mph - -   Scattered Clouds
4:55 AM 23.0 °F 14.7 °F 17.6 °F 80% 29.53 in - SSE 6.9 mph - N/A   Clear
5:00 AM 23 °F - 17 °F 71%  in 31 mi SSE 6.9 mph - -   Scattered Clouds
5:55 AM 21.2 °F 9.5 °F 15.8 °F 80% 29.53 in - WNW 11.5 mph - N/A   Clear
6:00 AM 21 °F - 16 °F 71%  in 37 mi WNW 11.5 mph - -  
6:55 AM 19.4 °F 5.5 °F 14.0 °F 80% 29.53 in 6.2 mi NW 15.0 mph - N/A Snow Low Drifting Snow
7:00 AM 19 °F - 15 °F 76%  in 31 mi NW 15.0 mph - - Snow Low Drifting Snow
7:55 AM 17.6 °F 2.2 °F 12.2 °F 79% 29.56 in 6.2 mi WNW 17.3 mph - N/A Snow Low Drifting Snow
8:00 AM 18 °F - 13 °F 70%  in 31 mi WNW 17.3 mph - - Snow Low Drifting Snow
8:55 AM 17.6 °F 3.7 °F 12.2 °F 79% 29.59 in 6.2 mi NNW 13.8 mph - N/A Snow Low Drifting Snow
9:00 AM 17 °F - 12 °F 72%  in 44 mi NNW 13.8 mph - - Snow Low Drifting Snow
9:55 AM 17.6 °F 2.2 °F 10.4 °F 73% 29.56 in 6.2 mi NNW 17.3 mph - N/A Snow Low Drifting Snow
10:00 AM 17 °F - 11 °F 67%  in 37 mi NNW 17.3 mph - - Snow Low Drifting Snow
10:55 AM 17.6 °F 3.2 °F 10.4 °F 73% 29.59 in 6.2 mi NNW 15.0 mph - N/A Snow Low Drifting Snow
11:00 AM 17 °F - 11 °F 69%  in 31 mi NNW 15.0 mph - - Snow Low Drifting Snow
11:55 AM 17.6 °F 3.2 °F 12.2 °F 79% 29.59 in 6.2 mi NNW 15.0 mph - N/A Snow Low Drifting Snow
12:00 PM 18 °F - 13 °F 71%  in 37 mi NNW 15.0 mph - - Snow Low Drifting Snow
12:55 PM 19.4 °F 4.5 °F 14.0 °F 80% 29.62 in 6.2 mi NNW 17.3 mph - N/A Snow Low Drifting Snow
1:00 PM 19 °F - 14 °F 74%  in 44 mi NNW 17.3 mph - - Snow Low Drifting Snow
1:55 PM 19.4 °F 5.5 °F 15.8 °F 86% 29.62 in 6.2 mi NNW 15.0 mph - N/A Snow Low Drifting Snow
2:00 PM 20 °F - 15 °F 75%  in 44 mi NNW 15.0 mph - - Snow Low Drifting Snow
2:55 PM 19.4 °F 11.5 °F 15.8 °F 86% 29.62 in - NNW 5.8 mph - N/A   Clear
3:00 PM 20 °F - 15 °F 74%  in 44 mi NNW 5.8 mph - -   Scattered Clouds
3:55 PM 21.2 °F 14.9 °F 15.8 °F 80% 29.68 in - NNW 4.6 mph - N/A   Clear
4:00 PM 20 °F - 15 °F 73%  in 44 mi NNW 4.6 mph - -   Clear
4:55 PM 21.2 °F 16.4 °F 15.8 °F 80% 29.71 in - NNW 3.5 mph - N/A   Clear
5:00 PM 21 °F - 15 °F 69%  in 44 mi NNW 3.5 mph - -   Clear
5:55 PM 21.2 °F - 15.8 °F 80% 29.71 in - NNW 2.3 mph - N/A   Clear
6:00 PM 21 °F - 15 °F 70%  in 44 mi NNW 2.3 mph - -   Clear
6:55 PM 23.0 °F - 15.8 °F 74% 29.71 in - Calm Calm - N/A   Clear
7:00 PM 22 °F - 15 °F 64%  in 44 mi Calm Calm - -  
7:55 PM 21.2 °F 11.7 °F 14.0 °F 74% 29.74 in - SSW 8.1 mph - N/A   Clear
8:00 PM 22 °F - 14 °F 59%  in 44 mi SSW 8.1 mph - -  
8:55 PM 21.2 °F 13.6 °F 14.0 °F 74% 29.74 in - SSW 5.8 mph - N/A   Clear
9:00 PM 21 °F - 14 °F 64%  in 44 mi SSW 5.8 mph - -  
9:55 PM 21.2 °F 10.9 °F 14.0 °F 74% 29.74 in - SSW 9.2 mph - N/A   Clear
10:00 PM 21 °F - 14 °F 65%  in 44 mi SSW 9.2 mph - -  
10:55 PM 21.2 °F 9.5 °F 15.8 °F 80% 29.74 in - SSW 11.5 mph - N/A   Clear
11:00 PM 21 °F - 15 °F 69%  in 44 mi SSW 11.5 mph - -  
11:55 PM 21.2 °F 10.9 °F 15.8 °F 80% 29.74 in - SW 9.2 mph - N/A   Clear